Location: Hastringsfeld
(50.9620°N, 10.4787°E)
Time: 12:02:58
(UTC+00:00)

NOSS 0 Rocket - Pass Details

Date: 26 September 2023
Orbit: 933 x 955 km, 70.0° (Epoch: 28 November)

Event Time Altitude Azimuth Distance (km) Brightness Sun altitude
Rises 04:01:49 0° 328° (NNW) 3,638 6.8 -11.5°
Reaches altitude 10° 04:04:23 10° 331° (NNW) 2,692 6.2 -11.1°
Maximum altitude 04:10:38 69° 55° (NE) 1,023 4.4 -10.1°
Drops below altitude 10° 04:16:51 10° 139° (SE) 2,681 6.8 -9.2°
Sets 04:19:24 0° 141° (SE) 3,623 7.4 -8.8°
